Year,Month,Day,Hour,Minute,Value (Times are PST for temperature in C)
2020,03,15,00,00,-0.70
2020,03,15,00,02,-0.70
2020,03,15,00,03,-0.70
2020,03,15,00,04,-0.70
2020,03,15,00,05,-0.70
2020,03,15,00,07,-0.70
2020,03,15,00,08,-0.60
2020,03,15,00,09,-0.60
2020,03,15,00,10,-0.60
2020,03,15,00,12,-0.70
2020,03,15,00,13,-0.60
2020,03,15,00,14,-0.50
2020,03,15,00,15,-0.50
2020,03,15,00,17,-0.50
2020,03,15,00,18,-0.60
2020,03,15,00,19,-0.60
2020,03,15,00,20,-0.70
2020,03,15,00,21,-0.70
2020,03,15,00,22,-0.70
2020,03,15,00,23,-0.70
2020,03,15,00,24,-0.70
2020,03,15,00,26,-0.60
2020,03,15,00,27,-0.60
2020,03,15,00,28,-0.50
2020,03,15,00,29,-0.50
2020,03,15,00,30,-0.40
2020,03,15,00,31,-0.40
2020,03,15,00,33,-0.30
2020,03,15,00,34,-0.20
2020,03,15,00,35,-0.20
2020,03,15,00,36,-0.20
2020,03,15,00,37,-0.20
2020,03,15,00,38,-0.20
2020,03,15,00,39,-0.20
2020,03,15,00,40,-0.20
2020,03,15,00,41,-0.20
2020,03,15,00,42,-0.20
2020,03,15,00,43,-0.20
2020,03,15,00,45,-0.20
2020,03,15,00,46,-0.20
2020,03,15,00,47,-0.20
2020,03,15,00,48,-0.20
2020,03,15,00,49,0.00
2020,03,15,00,50,0.10
2020,03,15,00,51,0.20
2020,03,15,00,52,0.30
2020,03,15,00,53,0.30
2020,03,15,00,54,0.30
2020,03,15,00,55,0.30
2020,03,15,00,57,0.30
2020,03,15,00,58,0.30
2020,03,15,00,59,0.20
2020,03,15,01,00,0.10
2020,03,15,01,01,0.10
2020,03,15,01,02,0.00
2020,03,15,01,03,0.00
2020,03,15,01,04,-0.10
2020,03,15,01,05,-0.20
2020,03,15,01,06,-0.20
2020,03,15,01,07,-0.30
2020,03,15,01,09,-0.30
2020,03,15,01,10,-0.30
2020,03,15,01,11,-0.30
2020,03,15,01,12,-0.30
2020,03,15,01,14,-0.50
2020,03,15,01,15,-0.50
2020,03,15,01,16,-0.60
2020,03,15,01,17,-0.60
2020,03,15,01,19,-0.70
2020,03,15,01,20,-0.70
2020,03,15,01,21,-0.70
2020,03,15,01,22,-0.70
2020,03,15,01,23,-0.70
2020,03,15,01,24,-0.80
2020,03,15,01,25,-0.80
2020,03,15,01,26,-0.80
2020,03,15,01,27,-0.90
2020,03,15,01,28,-1.00
2020,03,15,01,29,-1.00
2020,03,15,01,30,-1.10
2020,03,15,01,31,-1.10
2020,03,15,01,32,-1.20
2020,03,15,01,33,-1.20
2020,03,15,01,34,-1.20
2020,03,15,01,35,-1.20
2020,03,15,01,36,-1.20
2020,03,15,01,37,-1.20
2020,03,15,01,38,-1.20
2020,03,15,01,39,-1.20
2020,03,15,01,40,-1.20
2020,03,15,01,41,-1.20
2020,03,15,01,42,-1.20
2020,03,15,01,43,-1.20
2020,03,15,01,44,-1.20
2020,03,15,01,45,-1.20
2020,03,15,01,46,-1.20
2020,03,15,01,47,-1.20
2020,03,15,01,48,-1.20
2020,03,15,01,49,-1.10
2020,03,15,01,50,-1.10
2020,03,15,01,51,-1.10
2020,03,15,01,52,-1.10
2020,03,15,01,53,-1.10
2020,03,15,01,54,-1.20
2020,03,15,01,55,-1.20
2020,03,15,01,56,-1.20
2020,03,15,01,57,-1.30
2020,03,15,01,58,-1.30
2020,03,15,01,59,-1.30
2020,03,15,02,00,-1.40
2020,03,15,02,01,-1.40
2020,03,15,02,02,-1.40
2020,03,15,02,03,-1.40
2020,03,15,02,04,-1.40
2020,03,15,02,05,-1.40
2020,03,15,02,06,-1.40
2020,03,15,02,07,-1.40
2020,03,15,02,08,-1.60
2020,03,15,02,09,-1.60
2020,03,15,02,10,-1.60
2020,03,15,02,11,-1.60
2020,03,15,02,12,-1.40
2020,03,15,02,13,-1.40
2020,03,15,02,14,-1.30
2020,03,15,02,15,-1.20
2020,03,15,02,16,-1.20
2020,03,15,02,17,-1.20
2020,03,15,02,18,-1.20
2020,03,15,02,19,-1.20
2020,03,15,02,20,-1.20
2020,03,15,02,21,-1.20
2020,03,15,02,22,-1.20
2020,03,15,02,23,-1.20
2020,03,15,02,24,-1.20
2020,03,15,02,25,-1.30
2020,03,15,02,26,-1.30
2020,03,15,02,27,-1.30
2020,03,15,02,28,-1.30
2020,03,15,02,29,-1.40
2020,03,15,02,30,-1.40
2020,03,15,02,31,-1.40
2020,03,15,02,32,-1.40
2020,03,15,02,33,-1.40
2020,03,15,02,34,-1.40
2020,03,15,02,35,-1.40
2020,03,15,02,36,-1.40
2020,03,15,02,37,-1.40
2020,03,15,02,38,-1.40
2020,03,15,02,39,-1.40
2020,03,15,02,40,-1.40
2020,03,15,02,41,-1.40
2020,03,15,02,42,-1.40
2020,03,15,02,43,-1.30
2020,03,15,02,44,-1.30
2020,03,15,02,45,-1.30
2020,03,15,02,46,-1.30
2020,03,15,02,47,-1.30
2020,03,15,02,48,-1.30
2020,03,15,02,49,-1.30
2020,03,15,02,50,-1.30
2020,03,15,02,51,-1.30
2020,03,15,02,52,-1.30
2020,03,15,02,53,-1.30
2020,03,15,02,54,-1.30
2020,03,15,02,55,-1.30
2020,03,15,02,56,-1.30
2020,03,15,02,57,-1.30
2020,03,15,02,58,-1.30
2020,03,15,02,59,-1.30
2020,03,15,03,00,-1.30
2020,03,15,03,01,-1.30
2020,03,15,03,02,-1.30
2020,03,15,03,03,-1.30
2020,03,15,03,04,-1.30
2020,03,15,03,05,-1.30
2020,03,15,03,06,-1.30
2020,03,15,03,07,-1.30
2020,03,15,03,08,-1.30
2020,03,15,03,09,-1.30
2020,03,15,03,10,-1.40
2020,03,15,03,11,-1.30
2020,03,15,03,12,-1.30
2020,03,15,03,13,-1.30
2020,03,15,03,14,-1.30
2020,03,15,03,15,-1.30
2020,03,15,03,16,-1.40
2020,03,15,03,17,-1.40
2020,03,15,03,18,-1.40
2020,03,15,03,19,-1.30
2020,03,15,03,20,-1.30
2020,03,15,03,21,-1.30
2020,03,15,03,22,-1.30
2020,03,15,03,23,-1.30
2020,03,15,03,24,-1.30
2020,03,15,03,25,-1.30
2020,03,15,03,26,-1.20
2020,03,15,03,27,-1.20
2020,03,15,03,28,-1.20
2020,03,15,03,29,-1.20
2020,03,15,03,30,-1.20
2020,03,15,03,31,-1.20
2020,03,15,03,32,-1.20
2020,03,15,03,33,-1.20
2020,03,15,03,34,-1.20
2020,03,15,03,35,-1.20
2020,03,15,03,36,-1.20
2020,03,15,03,37,-1.20
2020,03,15,03,38,-1.10
2020,03,15,03,39,-1.10
2020,03,15,03,40,-1.00
2020,03,15,03,41,-1.10
2020,03,15,03,42,-1.10
2020,03,15,03,43,-1.10
2020,03,15,03,44,-1.10
2020,03,15,03,45,-1.10
2020,03,15,03,46,-1.10
2020,03,15,03,47,-1.10
2020,03,15,03,49,-1.20
2020,03,15,03,51,-1.20
2020,03,15,03,53,-1.20
2020,03,15,03,54,-1.30
2020,03,15,03,55,-1.40
2020,03,15,03,56,-1.40
2020,03,15,03,58,-1.60
2020,03,15,03,59,-1.60
2020,03,15,04,00,-1.60
2020,03,15,04,01,-1.60
2020,03,15,04,03,-1.60
2020,03,15,04,05,-1.70
2020,03,15,04,06,-1.70
2020,03,15,04,07,-1.80
2020,03,15,04,08,-1.90
2020,03,15,04,10,-1.90
2020,03,15,04,11,-1.90
2020,03,15,04,12,-1.90
2020,03,15,04,13,-1.90
2020,03,15,04,15,-1.90
2020,03,15,04,16,-1.90
2020,03,15,04,17,-2.10
2020,03,15,04,18,-2.10
2020,03,15,04,20,-2.10
2020,03,15,04,21,-2.10
2020,03,15,04,22,-2.10
2020,03,15,04,23,-2.10
2020,03,15,04,25,-2.10
2020,03,15,04,26,-2.10
2020,03,15,04,27,-2.10
2020,03,15,04,28,-2.10
2020,03,15,04,30,-2.20
2020,03,15,04,32,-2.30
2020,03,15,04,33,-2.30
2020,03,15,04,34,-2.30
2020,03,15,04,35,-2.30
2020,03,15,04,37,-2.30
2020,03,15,04,38,-2.30
2020,03,15,04,39,-2.30
2020,03,15,04,40,-2.30
2020,03,15,04,42,-2.30
2020,03,15,04,43,-2.30
2020,03,15,04,44,-2.40
2020,03,15,04,45,-2.40
2020,03,15,04,47,-2.40
2020,03,15,04,48,-2.40
2020,03,15,04,49,-2.40
2020,03,15,04,50,-2.40
2020,03,15,04,51,-2.40
2020,03,15,04,52,-2.40
2020,03,15,04,54,-2.40
2020,03,15,04,55,-2.40
2020,03,15,04,56,-2.40
2020,03,15,04,57,-2.40
2020,03,15,04,58,-2.40
2020,03,15,04,59,-2.40
2020,03,15,05,01,-2.40
2020,03,15,05,02,-2.40
2020,03,15,05,03,-2.40
2020,03,15,05,04,-2.40
2020,03,15,05,06,-2.40
2020,03,15,05,07,-2.40
2020,03,15,05,08,-2.40
2020,03,15,05,09,-2.40
2020,03,15,05,10,-2.40
2020,03,15,05,11,-2.40
2020,03,15,05,13,-2.40
2020,03,15,05,14,-2.40
2020,03,15,05,15,-2.40
2020,03,15,05,16,-2.40
2020,03,15,05,18,-2.40
2020,03,15,05,19,-2.40
2020,03,15,05,20,-2.60
2020,03,15,05,21,-2.40
2020,03,15,05,22,-2.40
2020,03,15,05,23,-2.40
2020,03,15,05,25,-2.40
2020,03,15,05,26,-2.40
2020,03,15,05,27,-2.30
2020,03,15,05,28,-2.30
2020,03,15,05,30,-2.10
2020,03,15,05,31,-2.10
2020,03,15,05,32,-2.10
2020,03,15,05,33,-2.10
2020,03,15,05,35,-2.10
2020,03,15,05,36,-2.10
2020,03,15,05,37,-2.10
2020,03,15,05,38,-2.10
2020,03,15,05,40,-1.90
2020,03,15,05,41,-1.90
2020,03,15,05,42,-1.90
2020,03,15,05,43,-1.90
2020,03,15,05,44,-1.90
2020,03,15,05,45,-1.90
2020,03,15,05,46,-1.90
2020,03,15,05,47,-2.10
2020,03,15,05,48,-2.10
2020,03,15,05,49,-2.10
2020,03,15,05,50,-2.10
2020,03,15,05,52,-2.10
2020,03,15,05,53,-2.10
2020,03,15,05,54,-2.10
2020,03,15,05,55,-2.10
2020,03,15,05,56,-2.10
2020,03,15,05,57,-2.20
2020,03,15,05,58,-2.20
2020,03,15,05,59,-2.30
2020,03,15,06,00,-2.40
2020,03,15,06,01,-2.40
2020,03,15,06,02,-2.40
2020,03,15,06,04,-2.60
2020,03,15,06,05,-2.60
2020,03,15,06,06,-2.60
2020,03,15,06,07,-2.60
2020,03,15,06,09,-2.60
2020,03,15,06,10,-2.60
2020,03,15,06,11,-2.60
2020,03,15,06,12,-2.60
2020,03,15,06,14,-2.60
2020,03,15,06,15,-2.60
2020,03,15,06,16,-2.60
2020,03,15,06,17,-2.60
2020,03,15,06,18,-2.60
2020,03,15,06,19,-2.40
2020,03,15,06,21,-2.40
2020,03,15,06,22,-2.40
2020,03,15,06,23,-2.40
2020,03,15,06,24,-2.30
2020,03,15,06,26,-2.20
2020,03,15,06,27,-2.10
2020,03,15,06,28,-2.10
2020,03,15,06,29,-2.10
2020,03,15,06,30,-2.10
2020,03,15,06,31,-1.90
2020,03,15,06,33,-1.90
2020,03,15,06,34,-1.90
2020,03,15,06,35,-1.90
2020,03,15,06,36,-1.90
2020,03,15,06,38,-1.80
2020,03,15,06,39,-1.80
2020,03,15,06,40,-1.70
2020,03,15,06,41,-1.70
2020,03,15,06,42,-1.70
2020,03,15,06,43,-1.60
2020,03,15,06,45,-1.60
2020,03,15,06,46,-1.60
2020,03,15,06,47,-1.60
2020,03,15,06,48,-1.60
2020,03,15,06,49,-1.60
2020,03,15,06,50,-1.60
2020,03,15,06,51,-1.60
2020,03,15,06,52,-1.40
2020,03,15,06,53,-1.60
2020,03,15,06,54,-1.60
2020,03,15,06,55,-1.60
2020,03,15,06,56,-1.60
2020,03,15,06,57,-1.60
2020,03,15,06,58,-1.60
2020,03,15,06,59,-1.40
2020,03,15,07,00,-1.40
2020,03,15,07,01,-1.40
2020,03,15,07,02,-1.40
2020,03,15,07,03,-1.30
2020,03,15,07,04,-1.30
2020,03,15,07,05,-1.20
2020,03,15,07,06,-1.20
2020,03,15,07,07,-1.20
2020,03,15,07,08,-1.20
2020,03,15,07,09,-1.10
2020,03,15,07,10,-1.10
2020,03,15,07,12,-1.00
2020,03,15,07,13,-1.00
2020,03,15,07,14,-0.90
2020,03,15,07,15,-0.90
2020,03,15,07,16,-0.90
2020,03,15,07,17,-0.80
2020,03,15,07,18,-0.80
2020,03,15,07,19,-0.80
2020,03,15,07,20,-0.80
2020,03,15,07,21,-0.70
2020,03,15,07,22,-0.70
2020,03,15,07,23,-0.70
2020,03,15,07,24,-0.70
2020,03,15,07,25,-0.60
2020,03,15,07,26,-0.50
2020,03,15,07,27,-0.40
2020,03,15,07,28,-0.40
2020,03,15,07,29,-0.30
2020,03,15,07,30,-0.20
2020,03,15,07,31,-0.20
2020,03,15,07,32,0.00
2020,03,15,07,33,0.00
2020,03,15,07,34,0.20
2020,03,15,07,35,0.30
2020,03,15,07,36,0.40
2020,03,15,07,37,0.50
2020,03,15,07,38,0.60
2020,03,15,07,39,0.70
2020,03,15,07,40,0.70
2020,03,15,07,41,0.70
2020,03,15,07,42,0.80
2020,03,15,07,43,0.90
2020,03,15,07,44,0.90
2020,03,15,07,45,1.00
2020,03,15,07,46,1.10
2020,03,15,07,47,1.20
2020,03,15,07,48,1.20
2020,03,15,07,49,1.20
2020,03,15,07,50,1.30
2020,03,15,07,51,1.30
2020,03,15,07,52,1.40
2020,03,15,07,53,1.50
2020,03,15,07,54,1.50
2020,03,15,07,55,1.60
2020,03,15,07,56,1.60
2020,03,15,07,57,1.70
2020,03,15,07,58,1.70
2020,03,15,07,59,1.70
2020,03,15,08,00,1.80
2020,03,15,08,01,1.80
2020,03,15,08,02,1.90
2020,03,15,08,03,1.90
2020,03,15,08,04,2.00
2020,03,15,08,05,2.00
2020,03,15,08,06,2.10
2020,03,15,08,07,2.10
2020,03,15,08,08,2.10
2020,03,15,08,09,2.10
2020,03,15,08,10,2.10
2020,03,15,08,11,2.10
2020,03,15,08,12,2.10
2020,03,15,08,13,2.10
2020,03,15,08,14,2.10
2020,03,15,08,15,2.10
2020,03,15,08,16,2.10
2020,03,15,08,17,2.20
2020,03,15,08,18,2.20
2020,03,15,08,19,2.20
2020,03,15,08,20,2.20
2020,03,15,08,21,2.20
2020,03,15,08,22,2.30
2020,03,15,08,23,2.30
2020,03,15,08,24,2.40
2020,03,15,08,25,2.40
2020,03,15,08,26,2.40
2020,03,15,08,27,2.40
2020,03,15,08,28,2.40
2020,03,15,08,29,2.40
2020,03,15,08,30,2.60
2020,03,15,08,31,2.60
2020,03,15,08,32,2.60
2020,03,15,08,33,2.60
2020,03,15,08,34,2.60
2020,03,15,08,35,2.70
2020,03,15,08,36,2.80
2020,03,15,08,37,2.80
2020,03,15,08,38,2.80
2020,03,15,08,39,2.80
2020,03,15,08,40,2.90
2020,03,15,08,41,3.00
2020,03,15,08,42,3.00
2020,03,15,08,43,3.00
2020,03,15,08,44,3.10
2020,03,15,08,45,3.10
2020,03,15,08,46,3.20
2020,03,15,08,47,3.20
2020,03,15,08,48,3.20
2020,03,15,08,49,3.20
2020,03,15,08,50,3.20
2020,03,15,08,51,3.10
2020,03,15,08,52,3.20
2020,03,15,08,53,3.20
2020,03,15,08,54,3.30
2020,03,15,08,55,3.30
2020,03,15,08,56,3.30
2020,03,15,08,57,3.30
2020,03,15,08,58,3.30
2020,03,15,08,59,3.40
2020,03,15,09,00,3.40
2020,03,15,09,01,3.40
2020,03,15,09,02,3.50
2020,03,15,09,03,3.50
2020,03,15,09,04,3.50
2020,03,15,09,05,3.50
2020,03,15,09,06,3.60
2020,03,15,09,07,3.60
2020,03,15,09,08,3.60
2020,03,15,09,09,3.70
2020,03,15,09,10,3.70
2020,03,15,09,11,3.70
2020,03,15,09,12,3.70
2020,03,15,09,13,3.70
2020,03,15,09,14,3.70
2020,03,15,09,15,3.70
2020,03,15,09,16,3.70
2020,03,15,09,17,3.70
2020,03,15,09,18,3.70
2020,03,15,09,19,3.70
2020,03,15,09,20,3.70
2020,03,15,09,22,3.70
2020,03,15,09,23,3.70
2020,03,15,09,24,3.70
2020,03,15,09,25,3.70
2020,03,15,09,27,3.70
2020,03,15,09,29,3.80
2020,03,15,09,30,3.80
2020,03,15,09,31,3.90
2020,03,15,09,32,3.90
2020,03,15,09,34,4.00
2020,03,15,09,35,4.10
2020,03,15,09,36,4.10
2020,03,15,09,38,4.10
2020,03,15,09,39,4.10
2020,03,15,09,40,4.10
2020,03,15,09,41,4.10
2020,03,15,09,43,4.10
2020,03,15,09,44,4.10
2020,03,15,09,45,4.10
2020,03,15,09,46,4.10
2020,03,15,09,47,4.20
2020,03,15,09,48,4.30
2020,03,15,09,50,4.40
2020,03,15,09,51,4.40
2020,03,15,09,52,4.60
2020,03,15,09,53,4.60
2020,03,15,09,55,4.70
2020,03,15,09,56,4.80
2020,03,15,09,57,4.80
2020,03,15,09,58,4.80
2020,03,15,10,00,4.90
2020,03,15,10,01,4.90
2020,03,15,10,02,5.00
2020,03,15,10,03,5.00
2020,03,15,10,05,5.20
2020,03,15,10,07,5.20
2020,03,15,10,08,5.20
2020,03,15,10,09,5.20
2020,03,15,10,10,5.20
2020,03,15,10,12,5.10
2020,03,15,10,13,5.10
2020,03,15,10,14,5.10
2020,03,15,10,15,5.10
2020,03,15,10,17,5.00
2020,03,15,10,18,5.00
2020,03,15,10,19,5.10
2020,03,15,10,20,5.10
2020,03,15,10,21,5.20
2020,03,15,10,22,5.20
2020,03,15,10,24,5.20
2020,03,15,10,25,5.30
2020,03,15,10,26,5.30
2020,03,15,10,27,5.40
2020,03,15,10,28,5.50
2020,03,15,10,29,5.60
2020,03,15,10,31,5.70
2020,03,15,10,32,5.70
2020,03,15,10,33,5.70
2020,03,15,10,34,5.80
2020,03,15,10,36,5.90
2020,03,15,10,37,5.90
2020,03,15,10,38,5.90
2020,03,15,10,39,5.90
2020,03,15,10,40,5.90
2020,03,15,10,41,5.90
2020,03,15,10,43,5.90
2020,03,15,10,44,5.90
2020,03,15,10,45,5.90
2020,03,15,10,46,5.90
2020,03,15,10,47,5.90
2020,03,15,10,48,5.90
2020,03,15,10,50,5.90
2020,03,15,10,51,5.90
2020,03,15,10,52,6.10
2020,03,15,10,53,6.10
2020,03,15,10,55,6.10
2020,03,15,10,56,6.10
2020,03,15,10,57,6.20
2020,03,15,10,58,6.20
2020,03,15,11,00,6.30
2020,03,15,11,01,6.30
2020,03,15,11,02,6.30
2020,03,15,11,03,6.30
2020,03,15,11,04,6.30
2020,03,15,11,05,6.30
2020,03,15,11,07,6.20
2020,03,15,11,08,6.20
2020,03,15,11,09,6.10
2020,03,15,11,10,6.10
2020,03,15,11,11,6.10
2020,03,15,11,12,6.10
2020,03,15,11,13,6.10
2020,03,15,11,14,6.10
2020,03,15,11,15,6.10
2020,03,15,11,16,6.10
2020,03,15,11,17,6.10
2020,03,15,11,18,6.10
2020,03,15,11,19,6.10
2020,03,15,11,20,6.10
2020,03,15,11,21,6.10
2020,03,15,11,22,6.10
2020,03,15,11,23,6.10
2020,03,15,11,24,6.10
2020,03,15,11,25,6.10
2020,03,15,11,26,6.10
2020,03,15,11,27,6.10
2020,03,15,11,28,6.10
2020,03,15,11,30,6.10
2020,03,15,11,31,6.10
2020,03,15,11,32,6.10
2020,03,15,11,33,6.10
2020,03,15,11,34,6.10
2020,03,15,11,35,6.10
2020,03,15,11,36,6.10
2020,03,15,11,37,6.10
2020,03,15,11,38,6.10
2020,03,15,11,39,6.10
2020,03,15,11,40,6.10
2020,03,15,11,41,6.10
2020,03,15,11,42,6.10
2020,03,15,11,43,6.10
2020,03,15,11,44,6.10
2020,03,15,11,46,6.20
2020,03,15,11,47,6.10
2020,03,15,11,48,6.10
2020,03,15,11,49,6.10
2020,03,15,11,51,6.10
2020,03,15,11,52,6.10
2020,03,15,11,53,6.10
2020,03,15,11,54,6.10
2020,03,15,11,56,6.10
2020,03,15,11,57,6.10
2020,03,15,11,58,6.10
2020,03,15,11,59,6.10
2020,03,15,12,00,6.10
2020,03,15,12,01,6.10
2020,03,15,12,02,6.10
2020,03,15,12,03,6.10
2020,03,15,12,04,6.10
2020,03,15,12,05,6.10
2020,03,15,12,06,6.10
2020,03,15,12,07,6.10
2020,03,15,12,08,6.10
2020,03,15,12,09,6.10
2020,03,15,12,10,6.10
2020,03,15,12,11,6.10
2020,03,15,12,12,6.10
2020,03,15,12,13,6.10
2020,03,15,12,14,6.10
2020,03,15,12,15,6.20
2020,03,15,12,16,6.20
2020,03,15,12,17,6.20
2020,03,15,12,18,6.10
2020,03,15,12,19,6.10
2020,03,15,12,20,6.10
2020,03,15,12,21,6.10
2020,03,15,12,22,6.10
2020,03,15,12,23,6.10
2020,03,15,12,24,6.10
2020,03,15,12,25,6.20
2020,03,15,12,26,6.20
2020,03,15,12,27,6.20
2020,03,15,12,29,6.30
2020,03,15,12,30,6.30
2020,03,15,12,31,6.30
2020,03,15,12,32,6.30
2020,03,15,12,34,6.30
2020,03,15,12,35,6.30
2020,03,15,12,36,6.30
2020,03,15,12,37,6.30
2020,03,15,12,38,6.40
2020,03,15,12,39,6.40
2020,03,15,12,40,6.30
2020,03,15,12,41,6.40
2020,03,15,12,42,6.40
2020,03,15,12,43,6.40
2020,03,15,12,44,6.40
2020,03,15,12,45,6.40
2020,03,15,12,46,6.40
2020,03,15,12,47,6.40
2020,03,15,12,48,6.40
2020,03,15,12,49,6.40
2020,03,15,12,50,6.40
2020,03,15,12,51,6.30
2020,03,15,12,52,6.30
2020,03,15,12,53,6.30
2020,03,15,12,54,6.30
2020,03,15,12,55,6.30
2020,03,15,12,56,6.30
2020,03,15,12,57,6.30
2020,03,15,12,58,6.20
2020,03,15,12,59,6.20
2020,03,15,13,00,6.20
2020,03,15,13,01,6.20
2020,03,15,13,02,6.20
2020,03,15,13,03,6.20
2020,03,15,13,04,6.20
2020,03,15,13,05,6.20
2020,03,15,13,06,6.20
2020,03,15,13,07,6.20
2020,03,15,13,08,6.20
2020,03,15,13,09,6.10
2020,03,15,13,10,6.10
2020,03,15,13,11,6.10
2020,03,15,13,12,6.10
2020,03,15,13,13,6.20
2020,03,15,13,14,6.20
2020,03,15,13,15,6.20
2020,03,15,13,16,6.20
2020,03,15,13,17,6.30
2020,03,15,13,18,6.30
2020,03,15,13,19,6.30
2020,03,15,13,20,6.30
2020,03,15,13,21,6.30
2020,03,15,13,22,6.30
2020,03,15,13,23,6.30
2020,03,15,13,24,6.30
2020,03,15,13,25,6.30
2020,03,15,13,26,6.30
2020,03,15,13,27,6.30
2020,03,15,13,28,6.30
2020,03,15,13,29,6.30
2020,03,15,13,30,6.30
2020,03,15,13,31,6.30
2020,03,15,13,32,6.30
2020,03,15,13,33,6.30
2020,03,15,13,34,6.30
2020,03,15,13,35,6.30
2020,03,15,13,36,6.30
2020,03,15,13,37,6.30
2020,03,15,13,38,6.30
2020,03,15,13,39,6.30
2020,03,15,13,40,6.30
2020,03,15,13,41,6.30
2020,03,15,13,42,6.30
2020,03,15,13,43,6.30
2020,03,15,13,44,6.30
2020,03,15,13,45,6.30
2020,03,15,13,46,6.30
2020,03,15,13,47,6.30
2020,03,15,13,48,6.30
2020,03,15,13,49,6.30
2020,03,15,13,50,6.30
2020,03,15,13,51,6.30
2020,03,15,13,52,6.30
2020,03,15,13,53,6.30
2020,03,15,13,54,6.30
2020,03,15,13,55,6.30
2020,03,15,13,56,6.30
2020,03,15,13,57,6.30
2020,03,15,13,58,6.30
2020,03,15,13,59,6.30
2020,03,15,14,00,6.30
2020,03,15,14,01,6.30
2020,03,15,14,02,6.30
2020,03,15,14,03,6.30
2020,03,15,14,04,6.40
2020,03,15,14,05,6.40
2020,03,15,14,06,6.40
2020,03,15,14,07,6.40
2020,03,15,14,08,6.40
2020,03,15,14,09,6.40
2020,03,15,14,10,6.40
2020,03,15,14,11,6.50
2020,03,15,14,12,6.50
2020,03,15,14,13,6.60
2020,03,15,14,14,6.60
2020,03,15,14,15,6.60
2020,03,15,14,16,6.60
2020,03,15,14,17,6.60
2020,03,15,14,18,6.60
2020,03,15,14,19,6.60
2020,03,15,14,20,6.50
2020,03,15,14,21,6.50
2020,03,15,14,22,6.40
2020,03,15,14,23,6.40
2020,03,15,14,24,6.30
2020,03,15,14,25,6.30
2020,03,15,14,26,6.30
2020,03,15,14,27,6.30
2020,03,15,14,28,6.30
2020,03,15,14,29,6.40
2020,03,15,14,30,6.50
2020,03,15,14,31,6.50
2020,03,15,14,32,6.60
2020,03,15,14,33,6.60
2020,03,15,14,34,6.70
2020,03,15,14,35,6.80
2020,03,15,14,36,6.80
2020,03,15,14,37,6.80
2020,03,15,14,38,6.80
2020,03,15,14,39,6.90
2020,03,15,14,40,6.90
2020,03,15,14,41,6.90
2020,03,15,14,42,7.00
2020,03,15,14,43,7.00
2020,03,15,14,44,7.00
2020,03,15,14,45,7.00
2020,03,15,14,46,7.00
2020,03,15,14,47,7.00
2020,03,15,14,48,7.00
2020,03,15,14,49,7.00
2020,03,15,14,50,7.00
2020,03,15,14,51,7.00
2020,03,15,14,52,7.00
2020,03,15,14,53,7.10
2020,03,15,14,54,7.10
2020,03,15,14,55,7.20
2020,03,15,14,56,7.20
2020,03,15,14,57,7.20
2020,03,15,14,58,7.20
2020,03,15,14,59,7.20
2020,03,15,15,00,7.30
2020,03,15,15,02,7.30
2020,03,15,15,03,7.30
2020,03,15,15,04,7.30
2020,03,15,15,05,7.30
2020,03,15,15,06,7.30
2020,03,15,15,08,7.40
2020,03,15,15,09,7.40
2020,03,15,15,10,7.40
2020,03,15,15,11,7.40
2020,03,15,15,12,7.40
2020,03,15,15,13,7.40
2020,03,15,15,15,7.30
2020,03,15,15,16,7.40
2020,03,15,15,17,7.40
2020,03,15,15,18,7.40
2020,03,15,15,20,7.40
2020,03,15,15,21,7.50
2020,03,15,15,22,7.50
2020,03,15,15,23,7.50
2020,03,15,15,24,7.60
2020,03,15,15,25,7.60
2020,03,15,15,27,7.70
2020,03,15,15,28,7.70
2020,03,15,15,29,7.70
2020,03,15,15,30,7.70
2020,03,15,15,32,7.80
2020,03,15,15,33,7.80
2020,03,15,15,34,7.80
2020,03,15,15,35,7.80
2020,03,15,15,37,7.80
2020,03,15,15,39,7.80
2020,03,15,15,40,7.80
2020,03,15,15,42,7.70
2020,03,15,15,44,7.70
2020,03,15,15,45,7.60
2020,03,15,15,46,7.60
2020,03,15,15,47,7.50
2020,03,15,15,49,7.40
2020,03,15,15,50,7.40
2020,03,15,15,51,7.40
2020,03,15,15,52,7.40
2020,03,15,15,54,7.40
2020,03,15,15,55,7.40
2020,03,15,15,56,7.30
2020,03,15,15,57,7.30
2020,03,15,15,58,7.30
2020,03,15,15,59,7.30
2020,03,15,16,00,7.20
2020,03,15,16,01,7.20
2020,03,15,16,03,7.20
2020,03,15,16,04,7.20
2020,03,15,16,05,7.20
2020,03,15,16,06,7.20
2020,03,15,16,08,7.20
2020,03,15,16,10,7.20
2020,03,15,16,11,7.20
2020,03,15,16,12,7.20
2020,03,15,16,13,7.20
2020,03,15,16,15,7.20
2020,03,15,16,17,7.20
2020,03,15,16,18,7.20
2020,03,15,16,19,7.20
2020,03,15,16,20,7.20
2020,03,15,16,22,7.30
2020,03,15,16,23,7.30
2020,03,15,16,24,7.30
2020,03,15,16,25,7.30
2020,03,15,16,26,7.30
2020,03,15,16,27,7.30
2020,03,15,16,28,7.40
2020,03,15,16,29,7.40
2020,03,15,16,31,7.50
2020,03,15,16,32,7.50
2020,03,15,16,33,7.60
2020,03,15,16,34,7.60
2020,03,15,16,36,7.70
2020,03,15,16,37,7.70
2020,03,15,16,38,7.70
2020,03,15,16,39,7.70
2020,03,15,16,40,7.70
2020,03,15,16,41,7.70
2020,03,15,16,43,7.70
2020,03,15,16,44,7.70
2020,03,15,16,45,7.70
2020,03,15,16,46,7.70
2020,03,15,16,48,7.70
2020,03,15,16,49,7.70
2020,03,15,16,50,7.70
2020,03,15,16,51,7.70
2020,03,15,16,52,7.70
2020,03,15,16,53,7.60
2020,03,15,16,54,7.60
2020,03,15,16,55,7.60
2020,03,15,16,56,7.60
2020,03,15,16,57,7.60
2020,03,15,16,58,7.60
2020,03,15,17,00,7.60
2020,03,15,17,01,7.60
2020,03,15,17,02,7.50
2020,03,15,17,03,7.50
2020,03,15,17,05,7.50
2020,03,15,17,06,7.50
2020,03,15,17,07,7.40
2020,03,15,17,08,7.40
2020,03,15,17,10,7.30
2020,03,15,17,11,7.30
2020,03,15,17,12,7.20
2020,03,15,17,13,7.20
2020,03,15,17,14,7.20
2020,03,15,17,15,7.10
2020,03,15,17,17,7.00
2020,03,15,17,18,6.90
2020,03,15,17,19,6.80
2020,03,15,17,20,6.80
2020,03,15,17,21,6.80
2020,03,15,17,22,6.70
2020,03,15,17,24,6.60
2020,03,15,17,25,6.50
2020,03,15,17,26,6.40
2020,03,15,17,27,6.40
2020,03,15,17,29,6.30
2020,03,15,17,30,6.30
2020,03,15,17,31,6.20
2020,03,15,17,32,6.20
2020,03,15,17,33,6.10
2020,03,15,17,34,6.10
2020,03,15,17,36,5.90
2020,03,15,17,37,5.90
2020,03,15,17,38,5.90
2020,03,15,17,39,5.80
2020,03,15,17,41,5.70
2020,03,15,17,42,5.70
2020,03,15,17,43,5.70
2020,03,15,17,44,5.70
2020,03,15,17,45,5.70
2020,03,15,17,46,5.60
2020,03,15,17,48,5.60
2020,03,15,17,49,5.50
2020,03,15,17,50,5.50
2020,03,15,17,51,5.50
2020,03,15,17,53,5.40
2020,03,15,17,54,5.40
2020,03,15,17,55,5.40
2020,03,15,17,56,5.40
2020,03,15,17,57,5.40
2020,03,15,17,58,5.40
2020,03,15,17,59,5.30
2020,03,15,18,00,5.30
2020,03,15,18,01,5.30
2020,03,15,18,02,5.30
2020,03,15,18,03,5.30
2020,03,15,18,04,5.30
2020,03,15,18,05,5.30
2020,03,15,18,06,5.20
2020,03,15,18,07,5.20
2020,03,15,18,08,5.20
2020,03,15,18,09,5.20
2020,03,15,18,10,5.20
2020,03,15,18,11,5.20
2020,03,15,18,12,5.20
2020,03,15,18,13,5.20
2020,03,15,18,14,5.20
2020,03,15,18,15,5.20
2020,03,15,18,16,5.20
2020,03,15,18,17,5.10
2020,03,15,18,18,5.10
2020,03,15,18,20,5.10
2020,03,15,18,21,5.00
2020,03,15,18,22,5.00
2020,03,15,18,23,5.00
2020,03,15,18,24,4.90
2020,03,15,18,25,4.90
2020,03,15,18,26,4.90
2020,03,15,18,27,4.90
2020,03,15,18,28,4.80
2020,03,15,18,29,4.80
2020,03,15,18,30,4.80
2020,03,15,18,31,4.80
2020,03,15,18,32,4.80
2020,03,15,18,33,4.80
2020,03,15,18,34,4.80
2020,03,15,18,35,4.80
2020,03,15,18,36,4.80
2020,03,15,18,37,4.80
2020,03,15,18,38,4.70
2020,03,15,18,39,4.70
2020,03,15,18,40,4.70
2020,03,15,18,41,4.70
2020,03,15,18,42,4.70
2020,03,15,18,43,4.60
2020,03,15,18,44,4.60
2020,03,15,18,45,4.60
2020,03,15,18,46,4.60
2020,03,15,18,47,4.60
2020,03,15,18,48,4.60
2020,03,15,18,49,4.60
2020,03,15,18,50,4.60
2020,03,15,18,51,4.60
2020,03,15,18,52,4.60
2020,03,15,18,53,4.40
2020,03,15,18,54,4.40
2020,03,15,18,55,4.40
2020,03,15,18,56,4.40
2020,03,15,18,57,4.40
2020,03,15,18,58,4.40
2020,03,15,18,59,4.40
2020,03,15,19,00,4.40
2020,03,15,19,01,4.40
2020,03,15,19,02,4.40
2020,03,15,19,03,4.40
2020,03,15,19,04,4.40
2020,03,15,19,05,4.40
2020,03,15,19,06,4.40
2020,03,15,19,07,4.40
2020,03,15,19,08,4.40
2020,03,15,19,09,4.40
2020,03,15,19,10,4.40
2020,03,15,19,11,4.60
2020,03,15,19,12,4.60
2020,03,15,19,13,4.60
2020,03,15,19,14,4.60
2020,03,15,19,15,4.60
2020,03,15,19,16,4.60
2020,03,15,19,17,4.60
2020,03,15,19,18,4.60
2020,03,15,19,19,4.60
2020,03,15,19,20,4.60
2020,03,15,19,21,4.60
2020,03,15,19,22,4.60
2020,03,15,19,23,4.60
2020,03,15,19,24,4.60
2020,03,15,19,25,4.60
2020,03,15,19,26,4.70
2020,03,15,19,27,4.70
2020,03,15,19,28,4.70
2020,03,15,19,29,4.80
2020,03,15,19,30,4.80
2020,03,15,19,31,4.80
2020,03,15,19,32,4.80
2020,03,15,19,33,4.80